Location: Brantford
(43.1330°N, 80.2670°W)
Time: 17:13:27
(UTC-05:00)

Vanguard 1 Rocket - All Passes

Search period start: 17 November 2019 00:00
Search period end: 27 November 2019 00:00
Orbit: 651 x 4225 km, 34.3° (Epoch: 16 November)

Date Brightness Start Highest point End Pass type
(mag) Time Alt. Az. Time Alt. Az. Time Alt. Az.
17 Nov - 03:44:06 10° SSW 03:47:09 18° SSE 03:50:25 10° ESE visible
17 Nov - 06:06:50 10° WSW 06:11:10 35° S 06:17:34 10° ESE visible
17 Nov - 08:30:38 10° WSW 08:36:09 29° SSW 08:45:03 10° SE daylight
17 Nov - 10:57:50 10° SW 11:02:33 14° SSW 11:08:34 10° S daylight
18 Nov - 02:35:16 10° S 02:36:34 11° SSE 02:37:50 10° SE night (unlit)
18 Nov - 04:56:39 10° SW 05:00:31 29° S 05:05:22 10° ESE visible
18 Nov - 07:20:11 10° WSW 07:24:57 32° S 07:32:26 10° SE daylight
18 Nov - 09:45:23 10° WSW 09:50:37 18° SSW 09:58:06 10° SSE daylight
19 Nov - 03:46:30 10° SW 03:49:58 22° SSE 03:53:38 10° ESE visible
19 Nov - 06:09:52 10° WSW 06:14:05 32° S 06:20:05 10° ESE visible
19 Nov - 08:34:10 10° WSW 08:39:05 22° SSW 08:46:26 10° SSE daylight
20 Nov - 02:36:31 10° SSW 02:39:22 16° SSE 02:42:02 10° ESE night (unlit)
20 Nov - 04:59:32 10° WSW 05:03:25 30° S 05:08:10 10° ESE visible
20 Nov - 07:23:29 10° WSW 07:27:54 26° S 07:34:25 10° SE daylight
20 Nov - 09:50:26 10° SW 09:53:34 12° SSW 09:57:22 10° S daylight
21 Nov - 01:27:35 10° S 01:28:36 10° SSE 01:29:33 10° SSE night (unlit)
21 Nov - 03:49:07 10° SW 03:52:50 25° S 03:56:41 10° ESE visible
21 Nov - 06:13:00 10° WSW 06:17:01 28° S 06:22:30 10° SE visible
21 Nov - 08:38:08 10° SW 08:42:03 16° SSW 08:47:16 10° SSE daylight
22 Nov - 02:38:34 10° SW 02:42:14 20° SSE 02:45:31 10° ESE night (unlit)
22 Nov - 05:02:30 10° WSW 05:06:20 29° S 05:10:53 10° ESE visible
22 Nov - 07:26:59 10° WSW 07:30:51 20° SSW 07:36:07 10° SSE daylight
23 Nov - 01:28:06 10° SSW 01:31:29 16° SSE 01:34:19 10° SE night (unlit)
23 Nov - 03:51:50 10° SW 03:55:44 28° S 03:59:39 10° ESE visible
23 Nov - 06:16:15 10° WSW 06:19:57 23° S 06:24:45 10° SE visible
23 Nov - 08:43:50 10° SSW 08:45:01 10° SSW 08:46:17 10° SSW daylight
24 Nov - 00:18:15 10° S 00:20:30 12° SSE 00:22:27 10° SE night (unlit)
24 Nov - 02:40:56 10° SW 02:45:08 25° S 02:48:45 10° ESE night (unlit)
24 Nov - 05:05:33 10° WSW 05:09:15 26° S 05:13:31 10° SE visible
24 Nov - 07:30:59 10° SW 07:33:48 14° SSW 07:37:15 10° SSE daylight
25 Nov - 01:29:49 10° SW 01:34:24 21° SSE 01:37:58 10° ESE night (unlit)
25 Nov - 03:54:40 10° WSW 03:58:39 28° S 04:02:33 10° ESE visible
25 Nov - 06:19:42 10° WSW 06:22:52 18° SSW 06:26:44 10° SSE visible
26 Nov - 00:18:42 10° SSW 00:23:26 17° SSE 00:27:02 10° ESE night (unlit)
26 Nov - 02:43:28 10° SW 02:48:03 28° S 02:51:51 10° ESE night (unlit)
26 Nov - 05:08:41 10° WSW 05:12:09 22° SSW 05:16:00 10° SE visible
26 Nov - 23:08:07 10° S 23:12:11 14° SSE 23:15:27 10° SE night (unlit)
